Location: Middelsbur
(53.6609°N, 7.5020°E)
Time: 11:45:21
(UTC+00:00)

COSMOS 2455 - Pass Details

Date: 06 July 2020
Orbit: 898 x 911 km, 67.1° (Epoch: 06 August)

Event Time Altitude Azimuth Distance (km) Brightness Sun altitude
Rises 23:29:03 0° 319° (NW) 3,553 6.8 -13.8°
Reaches altitude 10° 23:31:37 10° 315° (NW) 2,608 5.9 -13.8°
Maximum altitude 23:37:29 55° 240° (WSW) 1,091 3.1 -13.8°
Enters shadow 23:41:46 19° 169° (SSE) 2,042 4.1 -13.8°
